IRIDIUM 161

Last updated on Fri Sep 11 2026 00:03:06 GMT+0000 (Coordinated Universal Time)

1 43478U 18047C 26253.51525356 .00000037 00000+0 50996-5 0 9999 2 43478 86.4453 52.7610 0002242 95.8848 264.2608 14.43280405437442
UTC large
Height (km)
Speed (km/s)
/
Latitude / Longitude
Inclination (degrees)
Orbital Period (minutes)
Azimuth
Elevation
Range (km)
Doppler Factor

Next 0 passes for location: London (51.5072 / 0.1276)

No passes found over London.
IRIDIUM 161